Domov               UVHVVR             MKGP            O straneh              
ZDRAVSTVENO VARSTVO RASTLIN
  MREŽA AGROMET. POSTAJ
 ► PROGNOSTIČNA OBVESTILA
AGROMETEOROLOŠKI PODATKI -
ARSO
OBVLADOVANJE TVEGANJ ZARADI
NEUGODNIH VREMENSKIH RAZMER
  ► NARAVNE NESREČE
  ► SUŠA/MOČA
  ► NAMAKANJE
  ► ŽLED (gozdarstvo)
KARTOGRAFSKI PRIKAZI
SPLETNE POVEZAVE
PROJEKTI IN PUBLIKACIJE

AGROMETEOROLOŠKA MREŽA: VREMENSKE POSTAJE IN FENOLOŠKA OPAZOVANJA

Pregled podatkov za lokacijo Artiče, meteorološka postaja 42800

Pregled senzorjev na lokaciji

ID Ime Zadnja
vrednost
Datum
zadnje
spremembe
Tip
senzorja
2446 Temperatura 2 m ( °C) 16,95 °C 24.8.2017 08:30 50YA
2447 Relativna vlaga 2 m (% RH) 77,68 % RH 24.8.2017 08:30 50YA
2448 Omočenost lista (U) 0 U 24.8.2017 08:30 A730WET
3778 Padavine 0.2 mm (mm) 0 mm 24.8.2017 08:30 Rain-O-Matic

Pregled podatkov zadnjih 24 ur

Zap.
št.
Datum in čas Artiče
Omočenost
lista
Padavine
0.2
mm
Relativna
vlaga
2
m
Temperatura
2
m
0 24.8.2017 07:30 0 0 77,68 16,95
1 24.8.2017 07:00 10 0 83,16 15,34
2 24.8.2017 06:30 10 0 91,79 13,76
3 24.8.2017 06:00 10 0 100 11,89
4 24.8.2017 05:30 10 0 100 11,52
5 24.8.2017 05:00 10 0 100 11,94
6 24.8.2017 04:30 10 0 100 12,35
7 24.8.2017 04:00 7 0 99,89 11,98
8 24.8.2017 03:30 2 0 92,78 12,68
9 24.8.2017 03:00 1 0 91,78 12,77
10 24.8.2017 02:30 1 0 90,48 12,84
11 24.8.2017 02:00 0 0 89,01 13,01
12 24.8.2017 01:30 0 0 86,22 13,46
13 24.8.2017 01:00 0 0 84,96 13,54
14 24.8.2017 00:30 0 0 81,11 14,23
15 24.8.2017 00:00 0 0 78,12 14,78
16 23.8.2017 23:30 0 0 76,55 15,12
17 23.8.2017 23:00 0 0 69,15 16,51
18 23.8.2017 22:30 0 0 64,73 17,45
19 23.8.2017 22:00 0 0 61,59 18,11
20 23.8.2017 21:30 0 0 65,21 17,61
21 23.8.2017 21:00 0 0 68,15 17,25
22 23.8.2017 20:30 0 0 64,3 18,24
23 23.8.2017 20:00 0 0 65,33 18,3
24 23.8.2017 19:30 0 0 69,8 18,36
25 23.8.2017 19:00 0 0 60,39 20,22
26 23.8.2017 18:30 0 0 51,58 21,93
27 23.8.2017 18:00 0 0 45,65 23,22
28 23.8.2017 17:30 0 0 41,01 24,59
29 23.8.2017 17:00 0 0 36,88 25,28
30 23.8.2017 16:30 0 0 36,64 25,82
31 23.8.2017 16:00 0 0 36,53 25,84
32 23.8.2017 15:30 0 0 36,63 25,53
33 23.8.2017 15:00 0 0 38,08 25
34 23.8.2017 14:30 0 0 38,48 25,02
35 23.8.2017 14:00 0 0 38,93 24,48
36 23.8.2017 13:30 0 0 39,31 24,47
37 23.8.2017 13:00 0 0 42,13 24,14
38 23.8.2017 12:30 0 0 41,75 23,81
39 23.8.2017 12:00 0 0 39,28 23,91
40 23.8.2017 11:30 0 0 41,06 23,31
41 23.8.2017 11:00 0 0 43,12 22,42
42 23.8.2017 10:30 0 0 48,15 21,45
43 23.8.2017 10:00 0 0 53,14 20,8
44 23.8.2017 09:30 0 0 59,44 19,44
45 23.8.2017 09:00 0 0 62,04 18,09
© 2011 Ministrstvo za kmetijstvo, gozdarstvo in prehrano. Vse pravice pridržane.